Location: Bailleul
(50.3375°N, 2.8513°E)
Time: 09:28:10
(UTC+00:00)

Cosmos 1980 - Pass Details

Date: 16 June 2021
Orbit: 839 x 847 km, 71.0° (Epoch: 03 August)

Event Time Altitude Azimuth Distance (km) Brightness Sun altitude
Exits shadow 22:50:38 23° 164° (SSE) 1,720 4.7 -15.1°
Maximum altitude 22:53:39 42° 109° (ESE) 1,200 4.3 -15.3°
Drops below altitude 10° 22:58:57 10° 40° (NE) 2,481 6.7 -15.4°
Sets 23:01:31 0° 34° (NE) 3,421 7.6 -15.5°
